Location: Bremen
(53.0793°N, 8.8017°E)
Time: 22:31:41
(UTC+02:00)

Vanguard 2 Rocket - Pass Details

Date: 16 April 2024
Orbit: 556 x 3304 km, 32.9° (Epoch: 20 May)

Event Time Altitude Azimuth Distance (km) Brightness Sun altitude
Rises 05:00:29 0° 268° (W) 7,232 - -11.8°
Exits shadow 05:02:19 - 265° (W) 6,881 10.8 -11.6°
Reaches altitude 10° 05:06:56 10° 257° (WSW) 6,005 10.5 -11.0°
Maximum altitude 05:19:20 24° 213° (SSW) 4,186 9.7 -9.5°
Drops below altitude 10° 05:28:38 10° 167° (SSE) 4,381 10.2 -8.3°
Sets 05:32:25 0° 153° (SSE) 4,962 10.7 -7.8°
